COSMOS 2524

导读

COSMOS 2524是由独联体(CIS,实际为俄罗斯)发射的军用卫星,于2017年12月2日发射入轨,归属俄罗斯"宇宙"(Kosmos)卫星系列,该系列是苏联/俄罗斯历史最悠久的军用卫星系列,主要承担军事侦察、空间监测或技术试验等国防任务。其具体任务细节因保密未公开,长期在轨运行中,是俄罗斯太空军事资产的重要组成部分。

基本信息
目录编号:
43032
目录名称:
COSMOS 2524
国际标识:
2017-076A
轨道中心:
EARTH
卫星名称:
COSMOS 2524
卫星全名:
--
卫星状态:
在轨 (已飞行3123 天)
发射日期:
2017-12-02 UTC
国别 :
俄罗斯(独联体) (CIS)
星等 :
--
轨道信息
数据来源 国际轨道数据 AOE轨道数据
星历时间 2026-06-21T12:20:05+0800
6小时前
查看轨道信息
2026-06-20T02:00:00+0800
1天前
查看轨道信息
半长轴 7280.854km 7280.849km
偏心率 0.0004903 0.0004977
轨道倾角 67.144° 67.144°
近地点辐角 224.586° 226.827°
升交点赤经 182.769° 186.248°
平近点角 135.483° 137.304°
近地点 899.147km 899.088km
远地点 906.287km 906.336km
周期 103.046分钟 103.046分钟
每日圈数 13.974276 13.974292
详细信息
使用方式:
暂无
2D轨道图
3D轨道图
轨道高度分析图
轨道倾角分析图
轨道综合分析图
查看轨道综合分析图